EW0533 Weather Reports


Display with metric or nautical units.
time (UTC)temp
F
wind
direction
speed
MPH
gust
MPH
rain 1hr
in
rain 24hr
in
rain mn
in
humidity
%
barometer
mb
20260505124553 56 155 0.0 0.0 0.00 0.00 0.00 37 1003.0
20260505123055 56 155 0.0 0.0 0.00 0.00 0.00 37 1003.2
20260505121552 56 155 0.0 2.0 0.00 0.00 0.00 37 1003.0
20260505120054 56 155 1.0 3.0 0.00 0.00 0.00 37 1002.8
20260505114557 56 155 0.0 0.0 0.00 0.00 0.00 36 1002.8
20260505113059 57 155 0.0 0.0 0.00 0.00 0.00 35 1002.6
20260505111546 57 155 0.0 0.0 0.00 0.00 0.00 35 1002.5
20260505101550 58 155 0.0 1.0 0.00 0.00 0.00 34 1002.7
20260505100043 58 155 0.0 0.0 0.00 0.00 0.00 33 1002.6
20260505094542 58 156 0.0 0.0 0.00 0.00 0.00 33 1002.6
20260505093039 58 155 0.0 1.0 0.00 0.00 0.00 33 1002.2
20260505091542 59 155 0.0 0.0 0.00 0.00 0.00 32 1002.6
20260505090034 60 156 0.0 1.0 0.00 0.00 0.00 31 1002.9
20260505084533 60 155 0.0 2.0 0.00 0.00 0.00 31 1002.6
20260505083029 61 155 0.0 5.0 0.00 0.00 0.00 30 1003.0
20260505081529 61 155 1.0 4.0 0.00 0.00 0.00 30 1003.3
20260505080030 61 155 0.0 3.0 0.00 0.00 0.00 30 1003.4
20260505074527 62 155 1.0 3.0 0.00 0.00 0.00 29 1003.3
20260505073021 62 156 0.0 3.0 0.00 0.00 0.00 28 1002.9
20260505071621 63 155 0.0 4.0 0.00 0.00 0.00 27 1003.2
20260505070018 63 155 0.0 2.0 0.00 0.00 0.00 26 1003.0
20260505064514 64 155 1.0 4.0 0.00 0.00 0.00 25 1002.6
20260505063010 64 155 1.0 4.0 0.00 0.00 0.00 25 1002.3
20260505061509 64 155 2.0 6.0 0.00 0.00 0.00 24 1002.3
20260505060022 64 155 0.0 2.0 0.00 0.00 0.00 23 1002.3
20260505054506 65 155 1.0 5.0 0.00 0.00 0.00 22 1002.2
20260505053004 66 156 1.0 5.0 0.00 0.00 0.00 21 1002.2
20260505051512 66 155 1.0 6.0 0.00 0.00 0.00 21 1002.3
20260505041502 67 155 0.0 4.0 0.00 0.00 0.00 23 1002.1
20260505040002 67 155 0.0 2.0 0.00 0.00 0.00 23 1002.0
20260505034501 67 156 0.0 3.0 0.00 0.00 0.00 22 1001.9
20260505033100 68 155 0.0 3.0 0.00 0.00 0.00 21 1001.7
20260505031601 69 155 0.0 3.0 0.00 0.00 0.00 21 1001.5
20260505030059 69 155 1.0 6.0 0.00 0.00 0.00 20 1001.2
20260505024607 70 155 3.0 9.0 0.00 0.00 0.00 19 1001.0
20260505023102 70 155 2.0 6.0 0.00 0.00 0.00 19 1001.0
20260505021558 71 156 1.0 7.0 0.00 0.00 0.00 18 1000.9
20260505020057 71 155 1.0 7.0 0.00 0.00 0.00 19 1000.8
20260505014557 71 155 1.0 4.0 0.00 0.00 0.00 19 1000.6
20260505013116 72 155 2.0 9.0 0.00 0.00 0.00 18 1000.4
20260505011607 73 155 4.0 11.0 0.00 0.00 0.00 17 1000.3
20260505010107 73 155 1.0 4.0 0.00 0.00 0.00 15 1000.4
20260505004553 74 155 1.0 8.0 0.00 0.00 0.00 14 1000.3
20260505003056 74 156 4.0 11.0 0.00 0.00 0.00 13 1000.4
20260505001551 75 155 4.0 9.0 0.00 0.00 0.00 12 1000.5
20260505000059 75 155 2.0 5.0 0.00 0.00 0.00 12 1000.4
20260504234548 75 155 2.0 9.0 0.00 0.00 0.00 11 1000.5
20260504233054 75 155 3.0 11.0 0.00 0.00 0.00 10 1000.7
20260504231546 75 155 3.0 8.0 0.00 0.00 0.00 11 1000.7
20260504230046 75 155 5.0 16.0 0.00 0.00 0.00 10 1000.6
20260504224543 76 155 5.0 13.0 0.00 0.00 0.00 11 1000.7
20260504223047 76 156 7.0 14.0 0.00 0.00 0.00 10 1000.7
20260504221542 76 155 6.0 15.0 0.00 0.00 0.00 11 1000.7
20260504220043 76 155 6.0 16.0 0.00 0.00 0.00 11 1001.2
20260504214544 77 155 4.0 11.0 0.00 0.00 0.00 11 1001.5
20260504213040 78 155 2.0 15.0 0.00 0.00 0.00 12 1001.6
20260504211536 78 155 1.0 5.0 0.00 0.00 0.00 13 1001.9
20260504210029 77 155 2.0 9.0 0.00 0.00 0.00 14 1002.3
20260504204527 77 155 6.0 11.0 0.00 0.00 0.00 14 1002.8
20260504203027 75 155 1.0 17.0 0.00 0.00 0.00 15 1003.3
20260504201520 76 155 4.0 13.0 0.00 0.00 0.00 15 1003.6
20260504200017 75 155 4.0 10.0 0.00 0.00 0.00 15 1003.9
20260504194512 74 155 2.0 11.0 0.00 0.00 0.00 16 1004.2
20260504193016 74 155 3.0 10.0 0.00 0.00 0.00 17 1004.5
20260504191506 73 155 4.0 12.0 0.00 0.00 0.00 18 1004.7
20260504190004 73 156 4.0 12.0 0.00 0.00 0.00 18 1004.9
20260504184636 72 156 2.0 10.0 0.00 0.00 0.00 18 1005.4
20260504183100 71 155 6.0 16.0 0.00 0.00 0.00 19 1005.4
20260504181600 71 155 3.0 12.0 0.00 0.00 0.00 18 1005.6
20260504180056 71 155 2.0 16.0 0.00 0.00 0.00 19 1005.8
20260504174555 71 155 4.0 13.0 0.00 0.00 0.00 18 1005.9
20260504173057 71 155 5.0 10.0 0.00 0.00 0.00 18 1006.3
20260504171557 70 155 2.0 6.0 0.00 0.00 0.00 19 1006.3